COSMOS 2251 DEB, 34620

Orbit data source: Space-Track

COSMOS 2251 DEB, 34620 is space debris in LEO originally from a launch on Wed, 16 Jun 1993 UTC launched from the Plesetsk Missile And Space Complex (PKMTR). The debris from Iridium 33, an American commercial communications satellite, has been tracked extensively since its accidental collision with the defunct Russian satellite Cosmos 2251 in 2009. This event, occurring at high speed in low Earth orbit (LEO), generated thousands of pieces of space debris, significantly increasing the risk of further collisions. The Iridium 33 debris cloud has impacted space traffic management and orbital debris mitigation strategies, making it a subject of ongoing study in space situational awareness.

Loading next visibility...
Identifier
34620, 1993-036WR
Orbit
LEO
Country
Flag of CISCIS
Related business
Manufacturer
Unknown
Mission
Spacecraft
Bus & Motor
Unknown
Mass
Unknown
Launch date (UTC)
1993-06-16 (33 years ago)
Launch vehicle
Unknown
Launch site
Plesetsk Missile And Space Complex (PKMTR)
Object type
Payload
Rocket body
Debris
Shape & HBR
Unknown shape, 0.1 m
Radar Cross Section
Small (<0.1 m²)

Expand to show TLE details & history
Last TLE update: 2 days ago

TLE from 2 days ago
0 COSMOS 2251 DEB
1 34620U 93036WR  26206.27770221  .00007231  00000-0  16844-2 0  9998
2 34620  74.0491 157.1049 0072283 140.9821 219.6589 14.53371787900854
Epoch: 2026-07-25T06:39Z
TLE epoch observation values (Epoch: 2026-07-25T06:39:53.470Z)
Latitude
Longitude
114.13982°
Altitude
756.917 km
Speed
7.455 km/s
True Right ascension
10h 28m 25s
True Declination
0° 00' 00"
Sunlit
Object was in daylight at epoch
Visualization orbit readout
Latitude
Unknown
Longitude
Unknown
Altitude
Unknown
Speed
Unknown
Apparent Right ascension
Unknown
Apparent Declination
Unknown
Sunlit
N/A
Visualization observer readout
Local Sidereal Time
00:02:12
Azimuth
Unknown
Elevation
Unknown
Doppler factor
Unknown
Orbital elements
Apogee altitude
763.512 km
Perigee altitude
661.009 km
Semi-major axis
7,090.398 km
Eccentricity
0.00723
Inclination
74.0491°
RAAN
157.1049°
Arg. of periapsis
140.9821°
True anomaly
219.13392°
Mean anomaly
219.6589°
Eccentric anomaly
219.39605°
Mean motion
3.63528 °/min
Orbital period
99.03 mins
BSTAR
0.0016844
Loading maneuver chart data...
Computing Atmospheric mass density...
Loading historical data...
Loading historical data...
Loading historical data...
Loading historical data...
Loading historical data...
Loading historical data...
Loading historical data...

Documentation

Showing up to 5 results
|